Location: Prachuap Khiri Khan
(11.8170°N, 99.8000°E)
Time: 13:27:01
(UTC+07:00)

ISS - Visible Passes

Search period start: 21 November 2018 00:00
Search period end: 01 December 2018 00:00
Orbit: 401 x 409 km, 51.6° (Epoch: 21 November)

Date Brightness Start Highest point End Pass type
(mag) Time Alt. Az. Time Alt. Az. Time Alt. Az.
21 Nov -1.3 04:26:40 21° E 04:26:40 21° E 04:28:14 10° ESE visible
22 Nov -2.1 05:10:07 20° SW 05:10:07 20° SW 05:12:07 10° S visible
22 Nov -1.1 18:23:07 10° W 18:25:05 15° NW 18:27:03 10° NNW visible
